Location: Holyhead Bay
(53.3667°N, 4.6667°W)
Time: 01:16:50
(UTC+00:00)

IRIDIUM 33 DEB - Pass Details

Date: 03 October 2021
Orbit: 583 x 600 km, 86.4° (Epoch: 15 October)

Event Time Altitude Azimuth Distance (km) Brightness Sun altitude
Rises 04:53:58 0° 348° (NNW) 2,844 ? -14.2°
Reaches altitude 10° 04:56:20 10° 338° (NNW) 1,934 ? -13.8°
Maximum altitude 05:00:05 31° 276° (W) 1,044 ? -13.3°
Drops below altitude 10° 05:03:47 10° 214° (SW) 1,910 ? -12.7°
Enters shadow 05:04:01 - 213° (SSW) 1,990 ? -12.7°
